Find Starlink 36313

NORAD ID: 68156 Int'l Des: 2026-049 Owner: SPXS Country: US Constellation: starlink operational
LEOCIRCULARRETROGRADE

現在のビュー

3D地球を読み込み中...

About Starlink 36313

Starlink 36313 (NORAD 68156) is a starlink constellation satellite (v2 mini) launched Mar 13, 2026 by SPXS of US. It operates in LEO, CIRCULAR, RETROGRADE orbit with a mass of 575.00 kg.

Starlink 36313について

説明を読み込み中...

次回通過

Passes for default location (London). Set your location on the main map for personalized predictions.

高度履歴

Loading altitude history...

軌道要素

1 68156U 26049Q 26164.81027194 .00017426 00000-0 54100-3 0 9991
2 68156 97.2827 186.1244 0001950 82.1228 278.0236 15.33435717 14379
Epoch: Jun 13, 2026 • Age: 9 hours

現在のステータス

高度 482.5 km
速度 7.62 km/s
衛星直下点 -41.34°S, 33.99°E
打ち上げ日 Mar 13, 2026
運用期間 0.2 years
タイプ internet

技術仕様

分類 Payload
質量 575.00 kg
乾燥質量 530.00 kg
総質量 575.00 kg
長さ 0.30 m
直径 4.10 m
スパン 29.00 m
形状 Box + pan
製造者 SPXS
バスタイプ Starlink V2MO
フェーズステータス In Orbit
所有者/国 SPXS/US

Most Searched